カタログに戻る

COSMOS 2251 DEB

運用中LEO
NORAD 34911·DEBRIS·🇷🇺 Russia

打ち上げ Jun 16, 1993 から Plesetsk Cosmodrome

Loading…

次のパス (今後24時間)

TLE

最新Source: Space-Track

元期: Sep 14, 2026, 12:01 UTC

1 34911U 93036ADG 26257.50077521  .00000434  00000-0  93086-4 0  9999
2 34911  74.0388  79.0192 0082896 135.5957 255.6965 14.59680566926102

AllMySatでCOSMOS 2251 DEBをリアルタイム追跡

Download on the App Store